This is the latest recevied weather packets stored in our database for station/object WA5TET. If no packets are shown the sender has not sent any weather packets the latest 10 day(s).
| Time | Temp. | Humidity | Pressure | Rain* | Wind** | Luminosity | Snow |
|---|---|---|---|---|---|---|---|
| 1787835632 | 26.67° C | 74% | 1014 hPa | 0 mm | - | 64 W/m² | - |
| 1787835332 | 26.67° C | 74% | 1013.9 hPa | 0 mm | - | 59 W/m² | - |
| 1787835027 | 26.67° C | 75% | 1014 hPa | 0 mm | - | 54 W/m² | - |
| 1787834726 | 26.11° C | 76% | 1014 hPa | 0 mm | - | 49 W/m² | - |
| 1787834421 | 26.11° C | 76% | 1013.9 hPa | 0 mm | - | 43 W/m² | - |
| 1787834117 | 26.11° C | 77% | 1013.8 hPa | 0 mm | - | 38 W/m² | - |
| 1787833812 | 26.11° C | 77% | 1013.8 hPa | 0 mm | - | 33 W/m² | - |
| 1787833508 | 26.11° C | 76% | 1013.6 hPa | 0 mm | - | 27 W/m² | - |
| 1787833203 | 26.11° C | 76% | 1013.6 hPa | 0 mm | - | 22 W/m² | - |
| 1787832899 | 26.11° C | 76% | 1013.4 hPa | 0 mm | - | 15 W/m² | - |
| 1787832594 | 25.56° C | 77% | 1013.6 hPa | 0 mm | - | 11 W/m² | - |
| 1787832293 | 25.56° C | 77% | 1013.3 hPa | 0 mm | - | 7 W/m² | - |
| 1787831991 | 25.56° C | 76% | 1013.2 hPa | 0 mm | - | 4 W/m² | - |
| 1787831687 | 25.56° C | 76% | 1013.2 hPa | 0 mm | - | 2 W/m² | - |
| 1787831385 | 26.11° C | 75% | 1013.2 hPa | 0 mm | - | 1 W/m² | - |
| 1787831083 | 26.11° C | 74% | 1013.2 hPa | 0 mm | - | 0 W/m² | - |
| 1787830781 | 26.11° C | 73% | 1013 hPa | 0 mm | - | 0 W/m² | - |
| 1787830481 | 26.11° C | 74% | 1013.1 hPa | 0 mm | - | 0 W/m² | - |
| 1787830179 | 26.11° C | 73% | 1013.1 hPa | 0 mm | - | 0 W/m² | - |
| 1787829875 | 26.11° C | 73% | 1013.1 hPa | 0 mm | - | 0 W/m² | - |
| 1787829574 | 26.67° C | 73% | 1013 hPa | 0 mm | - | 0 W/m² | - |
| 1787829270 | 26.67° C | 73% | 1013 hPa | 0 mm | - | 0 W/m² | - |
| 1787828965 | 26.67° C | 73% | 1013 hPa | 0 mm | - | 0 W/m² | - |
| 1787828661 | 26.67° C | 73% | 1012.7 hPa | 0 mm | - | 0 W/m² | - |
| 1787828357 | 26.67° C | 72% | 1012.8 hPa | 0 mm | - | 0 W/m² | - |
* Rain latest hour (hover to see other rain measurements)
** Current wind speed in m/s (hover to see current wind gust speed)